カタログに戻る

COSMOS 375 DEB

運用中LEO
NORAD 4712·DEBRIS·🇷🇺 Russia

打ち上げ Oct 30, 1970 から Baikonur Cosmodrome

Loading…

次のパス (今後24時間)

TLE

最新Source: Space-Track

元期: Sep 14, 2026, 10:09 UTC

1 04712U 70091T   26257.42341485  .00003118  00000-0  56701-3 0  9999
2 04712  62.7617 142.6119 0464712 164.7888 196.7707 14.16069571756628

AllMySatでCOSMOS 375 DEBをリアルタイム追跡

Download on the App Store